User: anonymous   Login
Location: Mentone
(34.5413°N, 85.5351°W)
Time: 15:18:42
(UTC-05:00)
Language:

Tiros 1 despin weight - Orbit

View from above orbital plane
View from above orbital plane
View from above satellite
View from above satellite

Ground track
Ground track

The orbit data is extracted from the following two-line orbital elements,

1   115U 60002D   17114.83464128 +.00000493 +00000-0 +86477-4 0  9997
2   115 048.1677 040.2710 0035224 225.0687 134.7366 14.83058080021147
Epoch (UTC): 24 April 2017 20:01:53
Eccentricity: 0.0035224
inclination: 48.1677°
perigee height: 595 km
apogee height: 644 km
right ascension of ascending node: 40.2710°
argument of perigee: 225.0687°
revolutions per day: 14.83058080
mean anomaly at epoch: 134.7366°
orbit number at epoch: 2114

The dashed part of the orbit path shows where the satellite is in the earth's shadow,  

DLR